Location: Gleizolles
(44.4833°N, 6.7667°E)
Time: 20:19:59
(UTC+00:00)

Tiros 1 despin weight - Pass Details

Date: 03 July 2024
Orbit: 576 x 620 km, 48.2° (Epoch: 19 July)

Event Time Altitude Azimuth Distance (km) Brightness Sun altitude
Rises 08:04:40 0° 242° (WSW) 2,849 ? 41.8°
Reaches altitude 10° 08:06:57 10° 241° (WSW) 1,954 ? 42.2°
Maximum altitude 08:11:27 79° 155° (SSE) 629 ? 43.0°
Drops below altitude 10° 08:16:01 10° 69° (ENE) 1,982 ? 43.8°
Sets 08:18:20 0° 69° (ENE) 2,893 ? 44.2°
